Location: Asheville, NC
(35.6000°N, 82.5500°W)
Time: 19:19:27

Vanguard 2 Rocket - Pass Details

Date: 10 March 2018
Orbit: 554 x 3327 km, 32.9° (Epoch: 20 March)

Event Time Altitude Azimuth Distance (km) Brightness Sun altitude
Rises 02:00:55 0° 269° (W) 5,140 - -53.4°
Reaches altitude 10° 02:05:17 10° 253° (WSW) 4,602 - -52.9°
Maximum altitude 02:13:54 20° 213° (SSW) 4,580 - -51.8°
Drops below altitude 10° 02:24:58 10° 175° (S) 6,013 - -50.3°
Exits shadow 02:30:30 - 164° (SSE) 6,951 11.2 -49.5°
Sets 02:32:16 0° 161° (SSE) 7,256 11.3 -49.3°
